Regional Weather Roundup
Issued by NWS Midland/Odessa, TX

Skip options and go directly to product.
Home | Oldest Version | Previous Version | Current Version | All | Text Only | Save Text | Print | Product List | Glossary On

Skip product version selection by date and time.   
690
ASUS44 KMAF 270510
RWRMAF
MIDLAND AREA WEATHER ROUNDUP
NATIONAL WEATHER SERVICE MIDLAND TX
1200 AM CDT TUE SEP 27 2016

...IN SOUTHWEST TEXAS AND SOUTHEAST NEW MEXICO...

CITY           SKY/WX    TMP DP  RH WIND       PRES   REMARKS
ALPINE         CLOUDY    49  48  99 NE5       30.39F
ANDREWS        MOCLDY    60  47  64 CALM      30.30S
ARTESIA        CLOUDY    55  55 100 SW9       30.31S
BIG SPRING     NOT AVBL
CARLSBAD       CLOUDY    58  54  86 SW3       30.30S
DRYDEN           N/A     60  52  74 N10       30.23F
FORT STOCKTON  CLOUDY    54  53  97 W7        30.31S
GUAD PASS      LGT RAIN  50  38  63 NE23      30.36S
HOBBS          CLOUDY    59  48  67 SW3       30.32S
MARFA          CLOUDY   N/A N/A N/A N7        30.36R
MIDLAND AIRPK  CLOUDY    63  45  52 CALM      30.28S
MIDLAND INTL   CLOUDY    62  45  53 N3        30.28R
ODESSA         CLOUDY    61  45  55 N5        30.29R
PECOS          RAIN      56  52  87 CALM      30.28S
PRESIDIO       CLOUDY    59  50  70 N8        30.28S
SEMINOLE       CLOUDY    59  52  76 CALM      30.31S
SNYDER           N/A     60  45  59 CALM      30.26F
WINK           CLOUDY    57  55  93 W8        30.29R
$$
...OTHER STATIONS IN TEXAS...

CITY           SKY/WX    TMP DP  RH WIND       PRES   REMARKS
ABILENE        CLOUDY    61  52  72 N6        30.22F
AMARILLO       PTCLDY    55  38  52 S8        30.29S
AUSTIN         CLOUDY    67  63  87 N13       30.09F
BROWNSVILLE    PTCLDY    79  75  87 NW5       29.98S
CORPUS CHRISTI CLOUDY    76  72  87 N20       30.02F
DALLAS FTW     CLOUDY    68  60  75 N6        30.13F
DEL RIO        CLOUDY    67  60  78 NW13      30.17F
EL PASO        CLOUDY    58  46  64 CALM      30.31S
HOUSTON INT    MOCLDY    74  72  93 N9        30.03S
LUBBOCK        CLOUDY    57  40  52 CALM      30.29S
SAN ANGELO     CLOUDY    67  51  56 N6        30.22S
SAN ANTONIO    MOCLDY    67  61  81 N10       30.11S
WACO           CLOUDY    67  63  87 NW6       30.13S
WICHITA FALLS  NOT AVBL
$$
...OTHER LOCATIONS IN NEW MEXICO...

CITY           SKY/WX    TMP DP  RH WIND       PRES   REMARKS
ALAMAGORDO     CLOUDY    54  52  94 CALM        N/A
ALBUQUERQUE    PTCLDY    60  34  37 SE9       30.34R
CANNON AFB     CLEAR     56  43  61 S1        30.32S
CLOVIS         CLOUDY    55  41  58 CALM      30.32S
HOLLOMAN AFB   LGT RAIN  55  52  91 SW2       30.31S
ROSWELL        MOCLDY    57  47  69 SE6       30.30F
RUIDOSO        CLOUDY    50  37  62 S3        30.44S
SANTA FE       CLOUDY    52  32  46 S7        30.39S
TRUTH OR CONSE RAIN      52  49  89 SW5       30.34S FOG
TUCUMCARI      CLOUDY    54  37  52 SW6       30.30R
$$

USA.gov is the U.S. government's official web portal to all federal, state and local government web resources and services.